[[{"header":{"parameterUnit":"m.s-1","parameterCategory":1,"la1":30.2991,"la2":30.254,"lo1":-89.0895,"lo2":-89.0444,"dy":0.0017,"dx":0.0017,"nx":28,"ny":28,"refTime":"2024-02-16T03:00:00:Z","depth":0,"parameterNumber":2,"parameterNumberName":"U-component_of_WINDS"},"data":[0,0,0,0,0,0,0,0,0,0,0,0,0,0,0,0,0,0,0,0,0,0,0,0,0,0,0,0,0,0,0,0,0,0,0,0,0,0,0,0,0,0,0,0,0,0,0,0,0,0,0,0,0,0,0,0,0,0,1.8916,1.8918,0,1.903,1.9032,1.9033,1.9059,1.9058,1.9057,1.9057,1.9172,1.9176,1.9179,0,0,0,0,0,0,0,0,0,0,0,0,0,1.8719,1.8722,1.8916,1.8918,1.8919,1.903,1.9032,1.9033,1.9059,1.9058,1.9057,1.9056,1.9171,1.9175,1.918,0,0,0,0,0,0,0,0,0,0,0,0,0,1.8816,1.8723,1.8916,1.8945,1.8949,1.903,1.9032,1.9034,1.9059,1.9058,1.9057,1.9056,1.9169,1.9175,1.918,1.924,0,0,1.9198,1.92,0,0,0,0,0,0,0,0,1.881,1.8823,1.894,1.8944,1.8948,1.9029,1.9004,1.9103,1.906,1.9017,1.9057,1.9055,1.9125,1.9135,1.9159,1.9245,1.925,1.9198,1.9202,1.9204,1.9206,0,0,0,0,0,0,0,1.8803,1.8818,1.8961,1.8941,1.8946,1.8952,1.8965,1.9023,1.9077,1.9021,1.9023,1.9036,1.9127,1.9153,1.9161,1.9252,1.9198,1.9203,1.9207,1.9209,1.9391,1.9392,0,0,0,0,0,0,1.8792,1.8812,1.8958,1.8965,1.8875,1.8957,1.8971,1.9004,1.9076,1.9086,1.9037,1.9037,1.9144,1.9155,1.9166,1.9239,1.9204,1.921,1.9213,1.9389,1.9391,1.9393,0,0,0,0,0,0,1.8787,1.8805,1.8953,1.8889,1.8909,1.8961,1.8999,1.9007,1.9033,1.9088,1.9098,1.9054,1.9143,1.9158,1.9221,1.9243,1.9212,1.9217,1.9388,1.939,1.9392,1.9385,0,0,0,0,0,0,1.8782,1.8803,1.8826,1.889,1.8912,1.9007,1.9,1.901,1.9043,1.9044,1.9106,1.9116,1.9143,1.9212,1.9226,1.925,1.9222,1.9386,1.9389,1.9391,1.9384,1.9387,1.939,0,0,0,0,0,1.8775,1.882,1.8827,1.8845,1.8943,1.9008,1.9021,1.9052,1.9045,1.9068,1.9104,1.9114,1.9238,1.9218,1.9235,1.9261,1.9385,1.9388,1.9391,1.9383,1.9386,1.939,0,0,0,0,0,0,1.8757,1.8829,1.8838,1.8905,1.895,1.9012,1.9043,1.9056,1.9104,1.9103,1.9139,1.9153,1.9214,1.9244,1.922,1.9321,1.9311,1.9318,1.9299,1.9303,1.9306,1.9297,1.9227,0,0,0,0,0,1.8762,1.881,1.8869,1.8923,1.8945,1.899,1.902,1.904,1.9089,1.9108,1.9148,1.9194,1.9243,1.9275,1.9324,1.9389,1.9402,1.9414,1.9417,1.9419,1.9424,1.946,1.9465,1.9403,1.9403,1.9403,0,0,1.8771,1.8815,1.8843,1.892,1.8958,1.9006,1.9006,1.9057,1.9093,1.9115,1.9177,1.9208,1.9262,1.9326,1.9356,1.9352,1.9445,1.9423,1.9425,1.9429,1.9463,1.9469,1.9474,1.9405,1.9405,1.9404,0,0,1.8811,1.885,1.8899,1.8937,1.8993,1.9023,1.9034,1.9095,1.9116,1.9179,1.9197,1.9239,1.9324,1.9361,1.9391,1.9445,1.9455,1.946,1.9475,1.9509,1.9514,1.9518,1.9536,1.9542,1.9465,1.9465,1.9465,0,1.8815,1.8889,1.8922,1.8972,1.9005,1.9028,1.9077,1.9111,1.9181,1.9203,1.9198,1.9304,1.9342,1.9414,1.9427,1.9451,1.9465,1.9453,1.951,1.9515,1.952,1.9537,1.9544,1.9465,1.9465,1.9465,1.9465,0,1.889,1.8941,1.8973,1.904,1.9076,1.9125,1.9165,1.9198,1.9215,1.9245,1.9308,1.9354,1.9412,1.9431,1.9448,1.9505,1.9501,1.9503,1.9494,1.9525,1.9542,1.955,1.9465,1.9465,1.9465,1.9465,0,0,1.8923,1.9007,1.9019,1.9049,1.9113,1.9152,1.9202,1.9259,1.9286,1.9333,1.9375,1.9446,1.9447,1.9481,1.9503,1.9533,1.9571,1.9531,1.9532,1.9536,1.9635,1.9633,1.964,1.9578,1.958,1.9581,1.963,0,1.8971,1.9061,1.9092,1.9166,1.9213,1.9235,1.9278,1.9321,1.935,1.9394,1.9426,1.9475,1.9474,1.9494,1.9525,1.956,1.9591,1.9557,1.9617,1.9618,1.9602,1.9649,1.9647,1.9692,1.9637,1.9639,1.9639,0,1.9038,1.9086,1.9165,1.9223,1.9243,1.9282,1.9336,1.9377,1.9427,1.9445,1.9483,1.9502,1.9554,1.9542,1.9613,1.9589,1.9615,1.9636,1.9638,1.9645,1.963,1.9656,1.9707,1.9713,1.9651,1.965,1.9649,0,1.9053,1.9138,1.9195,1.9221,1.929,1.9316,1.9345,1.9394,1.9426,1.9473,1.9493,1.9546,1.9574,1.9614,1.9646,1.9635,1.9714,1.9705,1.973,1.9729,1.9746,1.9744,1.98,1.9764,1.9764,1.9764,1.9764,0,1.9102,1.915,1.9203,1.9238,1.9291,1.9327,1.9378,1.9409,1.9451,1.9492,1.9515,1.9553,1.9594,1.9637,1.9662,1.9717,1.973,1.9746,1.9752,1.9743,1.9741,1.976,1.9758,1.9766,1.9765,1.9765,1.9765,0,1.9128,1.9166,1.923,1.929,1.9306,1.9342,1.9393,1.9427,1.9457,1.9509,1.9523,1.957,1.9621,1.9658,1.9724,1.9742,1.98,1.9806,1.9783,1.9786,1.9809,1.9805,1.9879,1.989,1.9847,1.9847,1.9847,0,1.9156,1.9193,1.9257,1.9286,1.9316,1.9363,1.9396,1.9431,1.9464,1.9523,1.955,1.9603,1.9648,1.9729,1.9769,1.9819,1.9826,1.9849,1.9834,1.9824,1.9825,1.9822,1.9826,1.985,1.9851,1.9851,1.9851,0,1.9203,1.9219,1.9266,1.9319,1.9357,1.9401,1.9444,1.9467,1.951,1.9545,1.9599,1.9633,1.9701,1.9753,1.9807,1.9837,1.9851,1.9855,1.9864,1.9855,1.984,1.9847,1.9788,1.9853,1.9853,1.9853,1.9853,1.9853,1.923,1.9263,1.9313,1.9364,1.94,1.944,1.9475,1.951,1.9555,1.9613,1.9631,1.9686,1.9734,1.9808,1.9839,1.9881,1.988,1.9892,1.9895,1.9897,1.9897,1.9833,1.9892,1.9892,1.9892,1.9892,1.9892,0,1.9277,1.931,1.9356,1.9416,1.9456,1.9466,1.9514,1.9547,1.9595,1.9638,1.9681,1.9742,1.9793,1.9836,1.9888,1.9914,1.9921,1.9926,1.9924,1.993,1.9895,1.9883,1.9919,1.9919,1.9919,1.9919,1.9919,1.9919,1.9305,1.9362,1.9384,1.9459,1.9491,1.9546,1.9572,1.9609,1.9644,1.971,1.9753,1.9781,1.9823,1.9879,1.9925,1.9936,1.9954,1.9957,1.997,1.9936,1.9933,1.993,1.9918,1.9961,1.9961,2.0001,2.0001,2.0002]},{"header":{"parameterUnit":"m.s-1","parameterCategory":1,"la1":30.2991,"la2":30.254,"lo1":-89.0895,"lo2":-89.0444,"dy":0.0017,"dx":0.0017,"nx":28,"ny":28,"refTime":"2024-02-16T03:00:00:Z","depth":0,"parameterNumber":3,"parameterNumberName":"V-component_of_WINDS"},"data":[0,0,0,0,0,0,0,0,0,0,0,0,0,0,0,0,0,0,0,0,0,0,0,0,0,0,0,0,0,0,0,0,0,0,0,0,0,0,0,0,0,0,0,0,0,0,0,0,0,0,0,0,0,0,0,0,0,0,0.5106,0.5106,0,0.5147,0.5148,0.5148,0.5175,0.5175,0.5175,0.5176,0.5216,0.5217,0.5218,0,0,0,0,0,0,0,0,0,0,0,0,0,0.5047,0.5048,0.5106,0.5106,0.5107,0.5147,0.5148,0.5148,0.5175,0.5175,0.5175,0.5176,0.5216,0.5217,0.5218,0,0,0,0,0,0,0,0,0,0,0,0,0,0.5079,0.5048,0.5106,0.5125,0.5127,0.5147,0.5148,0.5149,0.5175,0.5175,0.5176,0.5176,0.5215,0.5217,0.5218,0.5221,0,0,0.5222,0.5223,0,0,0,0,0,0,0,0,0.5077,0.5081,0.5122,0.5124,0.5126,0.5156,0.5142,0.5173,0.5175,0.5157,0.5176,0.5176,0.5196,0.5199,0.5206,0.5223,0.5225,0.5222,0.5223,0.5224,0.5224,0,0,0,0,0,0,0,0.5075,0.5079,0.5122,0.5122,0.5125,0.5131,0.5136,0.5148,0.5174,0.5158,0.516,0.5165,0.5197,0.5205,0.5207,0.5226,0.5222,0.5224,0.5224,0.5225,0.5246,0.5246,0,0,0,0,0,0,0.507,0.5077,0.5121,0.5123,0.5102,0.5132,0.5137,0.5146,0.5174,0.5179,0.5165,0.5166,0.5202,0.5205,0.5209,0.5213,0.5224,0.5225,0.5226,0.5246,0.5246,0.5246,0,0,0,0,0,0,0.5068,0.5073,0.5119,0.5101,0.5107,0.5132,0.5143,0.5147,0.5155,0.5179,0.5184,0.5168,0.5202,0.5207,0.5218,0.5215,0.5226,0.5227,0.5247,0.5246,0.5246,0.5223,0,0,0,0,0,0,0.5067,0.5073,0.5075,0.5101,0.5108,0.5129,0.5143,0.5148,0.5157,0.5159,0.5183,0.5187,0.5203,0.5216,0.5219,0.5217,0.5228,0.5247,0.5246,0.5246,0.5224,0.5222,0.522,0,0,0,0,0,0.5064,0.5067,0.5075,0.508,0.5112,0.5128,0.5132,0.5151,0.5157,0.5159,0.5174,0.5187,0.5215,0.5216,0.5221,0.5219,0.5247,0.5247,0.5246,0.5225,0.5223,0.522,0,0,0,0,0,0,0.504,0.5071,0.508,0.5091,0.5107,0.5133,0.5136,0.5148,0.5162,0.5163,0.5185,0.519,0.5198,0.521,0.5211,0.5223,0.5232,0.5233,0.5215,0.5213,0.5211,0.5208,0.5229,0,0,0,0,0,0.5036,0.5048,0.5074,0.5081,0.5088,0.5111,0.5119,0.5132,0.5148,0.5155,0.5172,0.5187,0.5199,0.5207,0.5219,0.5226,0.5231,0.5227,0.5225,0.5223,0.5223,0.5226,0.5224,0.5244,0.5244,0.5244,0,0,0.5027,0.5046,0.5052,0.5076,0.509,0.5101,0.5116,0.5127,0.5135,0.5157,0.5168,0.518,0.5199,0.5207,0.5212,0.5217,0.5219,0.5223,0.5221,0.5222,0.5225,0.5223,0.5222,0.5243,0.5243,0.5243,0,0,0.5018,0.5033,0.504,0.5054,0.5074,0.5089,0.5091,0.5115,0.5124,0.5136,0.5152,0.5161,0.5182,0.5194,0.5203,0.5196,0.5207,0.5199,0.5189,0.5191,0.519,0.5188,0.5185,0.5183,0.5199,0.5199,0.5199,0,0.5004,0.5022,0.5042,0.5052,0.5062,0.5082,0.5089,0.5101,0.5124,0.513,0.5136,0.5161,0.5175,0.5186,0.5185,0.5192,0.5193,0.5197,0.5188,0.5187,0.5186,0.5183,0.5182,0.5198,0.5198,0.5198,0.5198,0,0.5004,0.5016,0.5019,0.5042,0.5052,0.506,0.508,0.5088,0.5099,0.5113,0.5124,0.5141,0.5157,0.5161,0.5172,0.5173,0.5175,0.5185,0.5194,0.5183,0.518,0.5179,0.5196,0.5197,0.5197,0.5197,0,0,0.4981,0.5013,0.5014,0.5024,0.5048,0.5057,0.5065,0.5081,0.5086,0.5102,0.5108,0.5125,0.5133,0.5143,0.5156,0.5159,0.515,0.5167,0.5168,0.5163,0.5151,0.5143,0.5141,0.5158,0.5158,0.5158,0.5149,0,0.4974,0.4991,0.5009,0.5019,0.5029,0.5048,0.5055,0.5069,0.5082,0.5092,0.5106,0.5117,0.5127,0.5133,0.5137,0.5151,0.5148,0.5152,0.5164,0.5164,0.5158,0.514,0.5133,0.5123,0.5148,0.5148,0.5148,0,0.4968,0.4982,0.4994,0.5015,0.502,0.5026,0.5042,0.5051,0.5067,0.5076,0.5087,0.51,0.5109,0.5118,0.5129,0.5131,0.5136,0.5144,0.5144,0.5145,0.5155,0.514,0.5121,0.5119,0.5147,0.5147,0.5147,0,0.4949,0.4971,0.498,0.4988,0.5013,0.5017,0.5027,0.5044,0.5052,0.5065,0.507,0.5084,0.5091,0.5101,0.5118,0.5123,0.5126,0.5137,0.5133,0.5132,0.5132,0.5132,0.5113,0.5137,0.5137,0.5138,0.5138,0,0.4939,0.4945,0.4971,0.4977,0.4983,0.5003,0.5009,0.5021,0.5035,0.5043,0.506,0.5066,0.5088,0.5096,0.5109,0.5115,0.5119,0.5125,0.5128,0.5123,0.5122,0.5127,0.5128,0.5137,0.5137,0.5137,0.5137,0,0.4918,0.4936,0.4947,0.497,0.4976,0.498,0.4999,0.5004,0.5018,0.5027,0.503,0.505,0.5061,0.5078,0.5094,0.5103,0.5106,0.5112,0.5101,0.5103,0.5097,0.5097,0.5079,0.5078,0.5104,0.5104,0.5104,0,0.491,0.4915,0.4938,0.4945,0.4955,0.4965,0.4973,0.4992,0.5,0.5018,0.5021,0.5033,0.5043,0.5059,0.5075,0.5087,0.5093,0.5086,0.5095,0.5089,0.5091,0.509,0.509,0.5083,0.5083,0.5083,0.5082,0,0.4894,0.4902,0.4914,0.4928,0.4937,0.4949,0.4962,0.4965,0.4987,0.4995,0.5006,0.5014,0.503,0.5041,0.5055,0.5065,0.5077,0.5079,0.5079,0.5073,0.5066,0.5069,0.5094,0.508,0.508,0.508,0.508,0.508,0.4879,0.4884,0.49,0.4912,0.4923,0.4934,0.494,0.4954,0.4964,0.4978,0.4989,0.4999,0.5014,0.5033,0.5043,0.505,0.5055,0.5055,0.5055,0.5054,0.5051,0.5065,0.5053,0.5053,0.5053,0.5053,0.5053,0,0.4863,0.4874,0.4885,0.4901,0.491,0.4921,0.4935,0.4941,0.495,0.4963,0.4973,0.4985,0.4996,0.5012,0.5024,0.5026,0.5032,0.5029,0.5028,0.503,0.5047,0.5045,0.5024,0.5024,0.5024,0.5024,0.5024,0.5024,0.4855,0.4863,0.4873,0.4886,0.4897,0.4908,0.4915,0.4924,0.4935,0.4947,0.4956,0.4967,0.4981,0.4993,0.5003,0.5007,0.501,0.5005,0.5011,0.5026,0.5029,0.5031,0.503,0.5006,0.5006,0.4993,0.4993,0.4993]}]]